EST,Max TemperatureF,Mean TemperatureF,Min TemperatureF,Max Dew PointF,MeanDew PointF,Min DewpointF,Max Humidity, Mean Humidity, Min Humidity, Max Sea Level PressureIn, Mean Sea Level PressureIn, Min Sea Level PressureIn, Max VisibilityMiles, Mean VisibilityMiles, Min VisibilityMiles, Max Wind SpeedMPH, Mean Wind SpeedMPH, Max Gust SpeedMPH,PrecipitationIn, CloudCover, Events, WindDirDegrees
2013-11-1,69,63,57,62,57,52,90,80,63,29.80,29.64,29.53,10,10,4,28,13,38,0.10,5,Rain,210
2013-11-2,66,55,44,52,42,36,93,68,33,29.74,29.67,29.61,10,10,10,9,3,,0.00,3,,327
2013-11-3,48,41,34,44,29,15,90,60,34,30.40,30.09,29.78,10,10,10,15,7,20,0.00,4,,357
2013-11-4,45,36,26,19,15,10,72,49,25,30.71,30.62,30.47,10,10,10,13,4,,0.00,0,,18
2013-11-5,51,38,25,35,28,19,86,69,44,30.72,30.64,30.53,10,10,10,9,1,,0.00,0,,171
2013-11-6,60,46,33,50,41,30,92,76,49,30.52,30.32,30.08,10,10,9,14,4,20,0.00,2,,196
2013-11-7,64,52,41,57,50,31,93,83,65,30.06,29.85,29.72,10,9,2,13,8,22,0.24,6,Rain,246
2013-11-8,46,38,30,33,27,19,96,64,38,30.14,29.99,29.87,10,10,10,16,6,29,0.00,2,Rain,299
2013-11-9,45,36,27,32,25,20,85,62,41,30.25,30.17,30.03,10,10,10,13,4,,0.00,2,,260
2013-11-10,57,47,37,41,35,31,93,72,39,30.00,29.88,29.76,10,10,7,14,3,23,0.04,5,Rain,267
2013-11-11,51,46,41,31,27,24,58,48,36,30.15,30.04,29.93,10,10,10,15,10,29,0.00,5,,259
2013-11-12,50,39,28,37,25,14,89,69,44,30.23,30.08,29.92,10,8,2,13,8,22,0.06,5,Rain-Snow,309
2013-11-13,36,30,25,15,12,8,63,49,31,30.32,30.27,30.23,10,10,10,17,8,22,0.00,0,,303
2013-11-14,50,37,24,23,18,14,75,52,26,30.20,30.15,30.09,10,10,10,12,4,18,0.00,0,,230
2013-11-15,60,40,21,32,23,16,92,63,19,30.25,30.20,30.15,10,10,9,12,3,17,0.00,0,,175
2013-11-16,60,44,28,36,31,25,92,71,33,30.34,30.30,30.24,10,10,8,6,1,,0.00,2,Rain,347
2013-11-17,60,45,30,59,47,29,100,91,74,30.31,30.14,29.83,10,6,1,8,1,,0.08,8,Rain,150
2013-11-18,64,56,48,60,47,30,96,68,31,29.83,29.65,29.57,10,8,2,20,9,30,0.64,4,Rain,228
2013-11-19,46,40,32,28,21,17,56,46,37,30.31,30.01,29.72,10,10,10,23,12,31,0.00,1,,308
2013-11-20,42,32,21,18,14,10,81,51,27,30.64,30.53,30.34,10,10,10,13,8,18,0.00,0,,348
2013-11-21,46,32,18,32,22,14,88,68,38,30.66,30.56,30.41,10,10,10,7,1,,0.00,2,Rain,218
2013-11-22,50,44,37,47,41,32,100,90,73,30.38,30.08,29.86,10,5,1,6,0,,0.20,8,Rain,321
2013-11-23,50,40,28,46,26,13,93,60,35,29.98,29.89,29.85,10,9,2,17,9,33,0.00,3,Rain-Snow,301
2013-11-24,28,24,19,9,2,-7,50,39,23,30.27,30.06,29.90,10,10,10,23,16,40,0.00,0,,304
2013-11-25,32,25,18,16,6,-1,63,44,34,30.42,30.36,30.29,10,10,10,15,7,29,0.00,0,,273
2013-11-26,41,36,32,40,24,14,96,63,41,30.34,30.24,29.99,10,8,4,8,5,,0.13,7,Rain,225
2013-11-27,63,50,37,61,51,28,96,90,70,29.91,29.43,29.27,10,5,1,22,11,39,2.29,8,Rain,198
2013-11-28,36,30,23,28,13,7,73,52,35,30.49,30.14,29.62,10,10,9,18,12,31,0.00,4,,295
2013-11-29,35,27,19,19,15,10,85,61,42,30.74,30.59,30.48,10,10,10,9,2,,0.00,3,,318
2013-11-30,33,24,14,20,13,8,84,63,40,30.80,30.67,30.43,10,10,10,8,2,,0.00,1,,52